Weather History for KFRM - April, 2014

Change the Weather History Date:

Thursday, April 3, 2014

  Actual Average Record
Temperature  
Mean Temperature 32 °F -  
Max Temperature 35 °F 47 °F 69 °F (1981)
Min Temperature 30 °F 30 °F 10 °F (1954)
Degree Days  
Heating Degree Days 32    
Moisture  
Dew Point 29 °F    
Average Humidity 86    
Maximum Humidity 93    
Minimum Humidity 75    
Precipitation  
Precipitation 0.09 in - - ()
Sea Level Pressure  
Sea Level Pressure 29.84 in    
Wind  
Wind Speed 13 mph (NE)    
Max Wind Speed 22 mph    
Max Gust Speed 25 mph    
Visibility 6 miles    
Events      
Averages and records for this station are not official NWS values.
T = Trace of Precipitation, MM = Missing Value Source: NWS Daily Summary

Daily Weather History Graph

Daily Weather History Graph

Search for Another Location

Airport or City:

Trip Planner

Search our weather history database for the weather conditions in past years. The results will help you decide how hot, cold, wet, or windy it might be!

Date:

Astronomy

Apr. 03, 2014 Rise Set
Actual Time 6:55 AM CDT 7:46 PM CDT
Civil Twilight 6:26 AM CDT 8:16 PM CDT
Nautical Twilight 5:52 AM CDT 8:50 PM CDT
Astronomical Twilight 5:16 AM CDT 9:26 PM CDT
Moon 9:19 AM CDT (4/3) No Moon Set
Length of Visible Light 13h 49m
Length of Day
12h 51m
Waxing Crescent, 17% of the Moon is Illuminated
Apr 3
Waxing Crescent
Apr 7
First Quarter
Apr 15
Full
Apr 22
Last Quarter
Apr 29
New

Hourly Weather History & Observations

Time (CDT) Temp. Windchill Dew Point Humidity Pressure Visibility Wind Dir Wind Speed Gust Speed Precip Events Conditions
12:15 AM 33.8 °F 25.8 °F 28.4 °F 81% 30.01 in 7.0 mi ENE 10.4 mph - N/A   Overcast
12:35 AM 33.8 °F 24.8 °F 28.4 °F 81% 29.99 in 10.0 mi ENE 12.7 mph - N/A   Overcast
12:55 AM 33.8 °F 23.9 °F 28.4 °F 81% 29.97 in 10.0 mi ENE 15.0 mph - N/A   Overcast
1:15 AM 33.8 °F 23.9 °F 30.2 °F 87% 29.95 in 10.0 mi ENE 15.0 mph - N/A   Overcast
1:35 AM 33.8 °F 23.5 °F 30.2 °F 87% 29.95 in 10.0 mi ENE 16.1 mph - N/A   Overcast
1:55 AM 33.8 °F 23.5 °F 30.2 °F 87% 29.93 in 10.0 mi ENE 16.1 mph 21.9 mph N/A   Overcast
2:35 AM 35.6 °F 25.5 °F 30.2 °F 81% 29.91 in 10.0 mi ENE 17.3 mph - N/A   Overcast
2:55 AM 35.6 °F 25.9 °F 30.2 °F 81% 29.91 in 10.0 mi ENE 16.1 mph 25.3 mph N/A   Overcast
3:15 AM 35.6 °F 25.9 °F 30.2 °F 81% 29.91 in 10.0 mi East 16.1 mph - N/A   Overcast
3:35 AM 35.6 °F 26.6 °F 30.2 °F 81% 29.91 in 10.0 mi East 13.8 mph - N/A   Overcast
3:55 AM 35.6 °F 27.1 °F 30.2 °F 81% 29.91 in 10.0 mi East 12.7 mph 18.4 mph N/A   Overcast
4:15 AM 35.6 °F 26.2 °F 30.2 °F 81% 29.90 in 10.0 mi East 15.0 mph - N/A   Overcast
4:35 AM 35.6 °F 27.1 °F 28.4 °F 75% 29.90 in 10.0 mi East 12.7 mph - N/A   Overcast
4:55 AM 35.6 °F 27.1 °F 28.4 °F 75% 29.90 in 10.0 mi East 12.7 mph - N/A   Overcast
5:15 AM 33.8 °F 24.8 °F 30.2 °F 87% 29.90 in 9.0 mi East 12.7 mph - N/A   Overcast
5:35 AM 33.8 °F 24.3 °F 30.2 °F 87% 29.88 in 7.0 mi ENE 13.8 mph - N/A   Overcast
5:55 AM 33.8 °F 25.3 °F 30.2 °F 87% 29.88 in 5.0 mi ENE 11.5 mph - N/A   Overcast
6:15 AM 33.8 °F 24.8 °F 30.2 °F 87% 29.89 in 6.0 mi ENE 12.7 mph - N/A   Overcast
6:35 AM 33.8 °F 24.8 °F 30.2 °F 87% 29.89 in 6.0 mi East 12.7 mph - N/A   Overcast
6:55 AM 33.8 °F 26.4 °F 30.2 °F 87% 29.90 in 5.0 mi ENE 9.2 mph - N/A   Overcast
7:15 AM 33.8 °F 24.8 °F 30.2 °F 87% 29.89 in 4.0 mi ENE 12.7 mph - N/A   Overcast
7:35 AM 33.8 °F 25.3 °F 30.2 °F 87% 29.89 in 3.0 mi ENE 11.5 mph - N/A   Overcast
7:55 AM 33.8 °F 26.4 °F 30.2 °F 87% 29.89 in 3.0 mi NE 9.2 mph - N/A   Overcast
8:15 AM 32.0 °F 23.6 °F 30.2 °F 93% 29.88 in 3.0 mi NE 10.4 mph - N/A   Overcast
8:35 AM 32.0 °F 23.0 °F 30.2 °F 93% 29.87 in 2.5 mi NE 11.5 mph - 0.01 in   Overcast
8:55 AM 32.0 °F 23.0 °F 30.2 °F 93% 29.87 in 3.0 mi ENE 11.5 mph - 0.01 in   Overcast
9:15 AM 32.0 °F 22.5 °F 30.2 °F 93% 29.86 in 5.0 mi ENE 12.7 mph - N/A   Overcast
9:35 AM 33.8 °F 23.5 °F 30.2 °F 87% 29.84 in 10.0 mi ENE 16.1 mph - N/A   Overcast
9:55 AM 33.8 °F 23.9 °F 28.4 °F 81% 29.85 in 10.0 mi ENE 15.0 mph 20.7 mph N/A   Overcast
10:15 AM 33.8 °F 24.8 °F 28.4 °F 81% 29.85 in 10.0 mi ENE 12.7 mph - N/A   Overcast
10:35 AM 33.8 °F 23.9 °F 28.4 °F 81% 29.86 in 10.0 mi ENE 15.0 mph - N/A   Overcast
10:55 AM 33.8 °F 25.3 °F 28.4 °F 81% 29.86 in 10.0 mi ENE 11.5 mph - N/A   Overcast
11:15 AM 33.8 °F 24.8 °F 28.4 °F 81% 29.86 in 10.0 mi East 12.7 mph - N/A   Overcast
11:35 AM 33.8 °F 24.8 °F 30.2 °F 87% 29.85 in 7.0 mi East 12.7 mph - N/A   Overcast
11:55 AM 33.8 °F 25.3 °F 30.2 °F 87% 29.85 in 6.0 mi ENE 11.5 mph - N/A   Overcast
12:15 PM 33.8 °F 25.8 °F 30.2 °F 87% 29.86 in 4.0 mi ENE 10.4 mph - N/A   Overcast
12:35 PM 33.8 °F 26.4 °F 30.2 °F 87% 29.85 in 3.0 mi NE 9.2 mph - N/A   Overcast
12:55 PM 33.8 °F 26.4 °F 30.2 °F 87% 29.84 in 2.5 mi ENE 9.2 mph - N/A   Overcast
1:15 PM 33.8 °F 26.4 °F 30.2 °F 87% 29.84 in 3.0 mi ENE 9.2 mph - N/A   Overcast
1:35 PM 33.8 °F 25.3 °F 30.2 °F 87% 29.82 in 2.5 mi ENE 11.5 mph - N/A   Overcast
1:55 PM 33.8 °F 25.3 °F 30.2 °F 87% 29.82 in 2.5 mi NE 11.5 mph - N/A   Overcast
2:15 PM 33.8 °F 25.3 °F 30.2 °F 87% 29.81 in 2.0 mi NE 11.5 mph - N/A   Overcast
2:35 PM 33.8 °F 24.8 °F 30.2 °F 87% 29.79 in 3.0 mi NE 12.7 mph - N/A   Overcast
2:55 PM 33.8 °F 25.3 °F 30.2 °F 87% 29.80 in 3.0 mi NE 11.5 mph - N/A   Overcast
3:15 PM 33.8 °F 24.8 °F 30.2 °F 87% 29.79 in 4.0 mi NNE 12.7 mph - N/A   Overcast
3:35 PM 33.8 °F 23.5 °F 30.2 °F 87% 29.78 in 3.0 mi NE 16.1 mph - N/A   Overcast
3:55 PM 33.8 °F 25.3 °F 30.2 °F 87% 29.78 in 2.5 mi NE 11.5 mph - N/A   Overcast
4:15 PM 33.8 °F 24.3 °F 30.2 °F 87% 29.78 in 3.0 mi NE 13.8 mph - N/A   Overcast
4:35 PM 33.8 °F 24.3 °F 30.2 °F 87% 29.77 in 2.5 mi NE 13.8 mph - 0.02 in   Overcast
4:55 PM 32.0 °F 22.1 °F 30.2 °F 93% 29.79 in 3.0 mi NNE 13.8 mph - 0.03 in   Overcast
5:15 PM 32.0 °F 23.6 °F 30.2 °F 93% 29.81 in 3.0 mi NE 10.4 mph - 0.01 in   Overcast
5:35 PM 32.0 °F 22.5 °F 28.4 °F 87% 29.79 in 2.5 mi NNE 12.7 mph - 0.03 in   Overcast
5:55 PM 32.0 °F 23.6 °F 28.4 °F 87% 29.78 in 4.0 mi NNE 10.4 mph 18.4 mph 0.04 in   Overcast
6:15 PM 32.0 °F 22.1 °F 28.4 °F 87% 29.77 in 10.0 mi NNE 13.8 mph 18.4 mph 0.01 in   Overcast
6:35 PM 32.0 °F 21.2 °F 28.4 °F 87% 29.77 in 10.0 mi NNE 16.1 mph 19.6 mph 0.01 in   Overcast
6:55 PM 32.0 °F 23.0 °F 28.4 °F 87% 29.80 in 10.0 mi NE 11.5 mph - 0.01 in   Overcast
7:15 PM 32.0 °F 22.5 °F 28.4 °F 87% 29.79 in 6.0 mi NNE 12.7 mph - N/A   Overcast
7:35 PM 32.0 °F 23.6 °F 28.4 °F 87% 29.77 in 8.0 mi North 10.4 mph - N/A   Overcast
7:55 PM 30.2 °F 21.3 °F 28.4 °F 93% 29.79 in 7.0 mi North 10.4 mph - N/A   Overcast
8:15 PM 30.2 °F 20.2 °F 28.4 °F 93% 29.78 in 7.0 mi North 12.7 mph - N/A   Overcast
8:35 PM 30.2 °F 18.9 °F 28.4 °F 93% 29.77 in 5.0 mi North 16.1 mph - N/A   Overcast
8:55 PM 30.2 °F 21.3 °F 28.4 °F 93% 29.81 in 5.0 mi North 10.4 mph - N/A   Overcast
9:15 PM 30.2 °F 20.2 °F 28.4 °F 93% 29.79 in 3.0 mi North 12.7 mph - N/A   Overcast
9:35 PM 30.2 °F 18.5 °F 26.6 °F 86% 29.76 in 2.0 mi North 17.3 mph 21.9 mph N/A   Overcast
10:55 PM 30.2 °F 18.5 °F 26.6 °F 86% 29.74 in 4.0 mi North 17.3 mph - N/A   Overcast
11:15 PM 30.2 °F 17.4 °F 26.6 °F 86% 29.72 in 6.0 mi North 20.7 mph 24.2 mph N/A   Overcast
11:35 PM 30.2 °F 18.9 °F 26.6 °F 86% 29.74 in 7.0 mi North 16.1 mph - N/A   Overcast
11:55 PM 30.2 °F 17.1 °F 26.6 °F 86% 29.72 in 7.0 mi North 21.9 mph - N/A   Overcast